Date String (YYYY-MM-DD hh:mm:ss) UTC,Instrument flags,absolute air pressure of the measurement (hPa),sample flow rate (lpm),inlet stack bypass flow (lpm),air temperature of the measurement (°C),ambient temperature measured by the external sensor (°C),aerosol sample conditioner tube jacket temperature (°C),OPC LED temperature (°C),internal box temperature (°C),relative humidity of the measurement (%),span deviation,mass concentration of particles derived from Lorenz-Mie calculation of OPC scattering (μg/m³),mass concentration of particles derived from Lorenz-Mie calculation of OPC scattering (μg/m³),mass concentration of particles derived from Lorenz-Mie calculation of OPC scattering (μg/m³)
DateTimeUTC,F1_M11,P_M11,Q1_M11,Q2_M11,T1_M11,T2_M11,T3_M11,T4_M11,T5_M11,U1_M11,ZSPAN_M11,X0_M11,X2_M11,X1_M11
2023-08-28 05:00:00,SystemResetWarning,0837.0,5.01,000.00,031.3,027.5,000.0,039.5,031.0,34.3,0000.0,0007.20,0004.44,0004.09
2023-08-28 05:01:00,SystemResetWarning,0836.9,4.99,000.00,031.2,027.4,000.0,039.5,031.0,34.3,0000.0,0007.19,0004.45,0004.10
2023-08-28 05:02:00,SystemResetWarning,0836.9,4.98,000.00,031.2,025.9,000.0,039.3,030.8,34.3,0000.0,0007.52,0004.46,0004.10
2023-08-28 05:03:00,SystemResetWarning,0837.0,5.01,000.00,031.1,024.8,000.0,039.1,030.6,34.4,0000.0,0007.95,0004.49,0004.09
2023-08-28 05:04:00,SystemResetWarning,0837.0,5.00,000.00,031.0,024.7,000.0,039.1,030.3,34.4,0000.2,0007.88,0004.46,0004.09
2023-08-28 05:05:00,SystemResetWarning,0837.0,5.00,000.00,030.7,025.0,000.0,039.1,030.2,34.9,0001.1,0007.86,0004.45,0004.08
2023-08-28 05:06:00,SystemResetWarning,0836.8,4.98,000.00,030.6,025.4,000.0,039.1,030.3,35.1,0001.2,0007.92,0004.46,0004.09
2023-08-28 05:07:00,SystemResetWarning,0836.8,5.03,000.00,030.7,025.7,000.0,039.0,030.5,35.3,0001.4,0008.00,0004.47,0004.09
2023-08-28 05:08:00,SystemResetWarning,0836.8,5.00,000.00,031.0,026.1,000.0,039.0,030.7,34.8,0001.5,0008.04,0004.49,0004.09
2023-08-28 05:09:00,SystemResetWarning,0836.8,4.98,000.00,031.1,026.3,000.0,039.0,030.8,34.3,0001.2,0008.02,0004.48,0004.09
2023-08-28 05:10:00,SystemResetWarning,0836.7,5.00,000.00,031.2,026.6,000.0,039.0,030.8,33.8,0001.2,0007.99,0004.48,0004.10
2023-08-28 05:11:00,SystemResetWarning,0836.8,5.00,000.00,031.3,026.8,000.0,039.0,030.8,33.4,0001.3,0008.00,0004.46,0004.09
2023-08-28 05:12:00,SystemResetWarning,0836.8,5.00,000.00,031.3,026.9,000.0,039.1,030.8,33.3,0001.4,0007.96,0004.45,0004.08
2023-08-28 05:13:00,SystemResetWarning,0836.8,5.01,000.00,031.3,027.1,000.0,039.1,030.8,33.2,0001.7,0007.75,0004.44,0004.07
2023-08-28 05:14:00,SystemResetWarning,0836.8,5.00,000.00,031.2,027.2,000.0,039.2,030.8,33.5,0001.6,0007.34,0004.43,0004.07
2023-08-28 05:15:00,SystemResetWarning,0836.7,4.99,000.00,031.2,027.3,000.0,039.2,030.8,33.8,0001.6,0007.34,0004.44,0004.07
2023-08-28 05:16:00,SystemResetWarning,0836.7,5.00,000.00,031.2,027.4,000.0,039.2,030.9,33.7,0001.6,0007.35,0004.45,0004.08
2023-08-28 05:17:00,SystemResetWarning,0836.6,5.00,000.00,031.1,027.4,000.0,039.2,030.9,33.8,0000.3,0007.31,0004.45,0004.07
2023-08-28 05:18:00,SystemResetWarning,0836.6,4.99,000.00,031.1,026.8,000.0,039.2,030.8,33.6,0000.0,0007.27,0004.46,0004.07
2023-08-28 05:19:00,SystemResetWarning,0836.6,5.01,000.00,031.1,025.2,000.0,039.0,030.5,33.5,0000.0,0007.03,0004.44,0004.07
2023-08-28 05:20:00,SystemResetWarning,0836.5,5.00,000.00,031.0,024.6,000.0,038.9,030.3,33.7,0000.0,0006.97,0004.43,0004.07
2023-08-28 05:21:00,SystemResetWarning,0836.5,5.01,000.00,030.7,024.7,000.0,038.9,030.1,34.3,0000.0,0006.95,0004.44,0004.09
2023-08-28 05:22:00,SystemResetWarning,0836.5,5.01,000.00,030.6,025.1,000.0,038.9,030.2,34.8,0000.0,0007.51,0004.45,0004.10
2023-08-28 05:23:00,SystemResetWarning,0836.4,4.97,000.00,030.5,025.5,000.0,038.9,030.3,35.1,0000.0,0007.59,0004.47,0004.12
2023-08-28 05:24:00,SystemResetWarning,0836.4,5.04,000.00,030.6,025.8,000.0,038.9,030.4,35.1,0000.0,0007.64,0004.48,0004.12
2023-08-28 05:25:00,SystemResetWarning,0836.5,4.97,000.00,030.8,026.1,000.0,038.8,030.6,34.6,0000.0,0007.56,0004.45,0004.12
2023-08-28 05:26:00,SystemResetWarning,0836.5,5.01,000.00,030.9,026.4,000.0,038.8,030.6,34.5,0000.0,0007.55,0004.45,0004.14
2023-08-28 05:27:00,SystemResetWarning,0836.5,5.01,000.00,030.9,026.6,000.0,038.8,030.7,34.5,0000.0,0007.56,0004.46,0004.15
2023-08-28 05:28:00,SystemResetWarning,0836.5,4.99,000.00,031.0,026.8,000.0,038.9,030.7,34.4,0000.9,0007.51,0004.44,0004.14
2023-08-28 05:29:00,SystemResetWarning,0836.5,4.99,000.00,031.0,026.9,000.0,038.9,030.7,34.1,0000.4,0007.59,0004.45,0004.15
2023-08-28 05:30:00,SystemResetWarning,0836.5,5.01,000.00,030.9,027.0,000.0,038.9,030.7,33.9,0001.1,0007.55,0004.44,0004.15
2023-08-28 05:31:00,SystemResetWarning,0836.4,5.01,000.00,030.9,027.1,000.0,038.9,030.7,34.1,0001.2,0007.55,0004.44,0004.16
2023-08-28 05:32:00,SystemResetWarning,0836.5,5.01,000.00,030.9,027.2,000.0,038.9,030.8,34.3,0001.1,0007.61,0004.46,0004.15
2023-08-28 05:33:00,SystemResetWarning,0836.4,5.00,000.00,030.9,027.3,000.0,039.0,030.8,34.4,0000.7,0007.26,0004.47,0004.15
2023-08-28 05:34:00,SystemResetWarning,0836.3,4.99,000.00,030.8,027.4,000.0,039.0,030.8,34.5,0000.9,0007.21,0004.50,0004.15
2023-08-28 05:35:00,SystemResetWarning,0836.4,5.00,000.00,030.8,027.4,000.0,039.0,030.8,34.6,0000.6,0007.29,0004.52,0004.16
2023-08-28 05:36:00,SystemResetWarning,0836.4,4.99,000.00,030.8,027.0,000.0,038.9,030.8,34.2,0001.4,0007.22,0004.51,0004.16
2023-08-28 05:37:00,SystemResetWarning,0836.4,5.00,000.00,030.8,025.4,000.0,038.7,030.5,33.9,0000.3,0007.35,0004.55,0004.16
2023-08-28 05:38:00,SystemResetWarning,0836.4,5.01,000.00,030.6,024.6,000.0,038.6,030.3,33.8,0000.6,0007.32,0004.54,0004.16
2023-08-28 05:39:00,SystemResetWarning,0836.4,5.01,000.00,030.5,024.7,000.0,038.6,030.2,33.9,0000.4,0007.32,0004.55,0004.17
2023-08-28 05:40:00,SystemResetWarning,0836.4,5.00,000.00,030.3,025.0,000.0,038.6,030.1,34.0,0000.0,0007.17,0004.52,0004.16
2023-08-28 05:41:00,SystemResetWarning,0836.5,5.00,000.00,030.2,025.4,000.0,038.6,030.1,34.3,0000.0,0007.63,0004.55,0004.17
2023-08-28 05:42:00,SystemResetWarning,0836.5,5.00,000.00,030.1,025.7,000.0,038.6,030.2,34.2,0000.0,0007.96,0004.55,0004.16
2023-08-28 05:43:00,SystemResetWarning,0836.5,5.01,000.00,030.1,026.1,000.0,038.6,030.3,34.4,0000.0,0007.92,0004.53,0004.15
2023-08-28 05:44:00,SystemResetWarning,0836.4,5.00,000.00,030.0,026.3,000.0,038.5,030.3,34.6,0000.0,0008.00,0004.56,0004.14
2023-08-28 05:45:00,SystemResetWarning,0836.4,5.00,000.00,030.0,026.5,000.0,038.5,030.3,34.7,0000.0,0008.03,0004.55,0004.14
2023-08-28 05:46:00,SystemResetWarning,0836.4,5.00,000.00,029.9,026.7,000.0,038.5,030.4,34.9,0000.0,0008.00,0004.53,0004.13
2023-08-28 05:47:00,SystemResetWarning,0836.3,4.99,000.00,029.9,026.9,000.0,038.5,030.4,35.1,0000.0,0008.02,0004.55,0004.14
2023-08-28 05:48:00,SystemResetWarning,0836.3,5.03,000.00,030.1,027.0,000.0,038.4,030.5,34.9,0000.0,0008.02,0004.56,0004.15
2023-08-28 05:49:00,SystemResetWarning,0836.4,4.96,000.00,030.3,027.1,000.0,038.4,030.6,34.5,0000.0,0008.25,0004.56,0004.14
2023-08-28 05:50:00,SystemResetWarning,0836.4,5.03,000.00,030.4,027.2,000.0,038.4,030.6,34.3,0000.0,0008.27,0004.56,0004.13
2023-08-28 05:51:00,SystemResetWarning,0836.4,4.99,000.00,030.4,027.2,000.0,038.4,030.7,34.2,0000.0,0008.27,0004.57,0004.13
2023-08-28 05:52:00,SystemResetWarning,0836.4,5.00,000.00,030.4,027.3,000.0,038.4,030.7,34.2,0000.0,0008.00,0004.55,0004.12
2023-08-28 05:53:00,SystemResetWarning,0836.4,4.99,000.00,030.4,027.4,000.0,038.5,030.7,34.2,0000.0,0007.53,0004.54,0004.12
2023-08-28 05:54:00,SystemResetWarning,0836.4,5.00,000.00,030.4,027.4,000.0,038.5,030.7,33.9,0000.0,0007.48,0004.52,0004.12
2023-08-28 05:55:00,SystemResetWarning,0836.4,5.01,000.00,030.4,027.5,000.0,038.5,030.7,34.0,0001.0,0007.37,0004.49,0004.12
2023-08-28 05:56:00,SystemResetWarning,0836.4,4.99,000.00,030.4,026.6,000.0,038.4,030.6,33.7,0001.1,0007.26,0004.47,0004.13
2023-08-28 05:57:00,SystemResetWarning,0836.4,5.00,000.00,030.4,025.0,000.0,038.3,030.3,33.3,0001.7,0007.27,0004.48,0004.14
2023-08-28 05:58:00,SystemResetWarning,0836.3,5.01,000.00,030.3,024.5,000.0,038.2,030.1,33.5,0000.6,0007.29,0004.48,0004.14
2023-08-28 05:59:00,SystemResetWarning,0836.4,5.01,000.00,030.1,024.7,000.0,038.2,029.9,33.7,0001.0,0007.27,0004.47,0004.13
